TSR
TSR's Shipments Over Time
Supply Ratings
Shipment Reliability and Frequency Volume of Goods
Avg. Shipments per Month: 0.83 Average TEU per month: 1.25
Active Months: 3 Average TEU per Shipment: 1.50
Shipment Frequency Std. Dev.: 1.53
Shipments By Companies
Company Name Shipments
IFA ROTORION NORTH AMERICA LLC 73 shipments
ZF ACTIVE SAFETY AND ELECTRONICS US 29 shipments
ZF RESTRAINTS US INC 21 shipments
IFA ROTORION NA LLC 10 shipments
NEXTEER 3900 HOLLAND 9 shipments
Shipments By HS Code
HS Code Shipments
841590 Air conditioning machines; with motor driven fan and elements for temperature control, parts thereof 77 shipments
860730 Railway or tramway locomotives or rolling stock; parts, hooks and other coupling devices, buffers and parts thereof 40 shipments
841520 Air conditioning machines; comprising a motor driven fan and elements for changing the temperature and humidity, of a kind used for persons, in motor vehicles 7 shipments
841590.0 Air conditioning machines; comprising a motor driven fan and elements for changing the temperature and humidity, including those machines in which the humidity cannot be separately regulated 7 shipments
901839 Medical, surgical instruments and appliances; catheters, cannulae and the like 4 shipments
842691.0 Derricks, cranes, including cable cranes, mobile lifting frames, straddle carriers and works trucks fitted with a crane 2 shipments
401019 Rubber; vulcanised, conveyor belts or belting, (reinforced with other than metal only or textile materials only) 1 shipments
460120 Plaits and similar products of plaiting materials, assembled into strips or not; plaiting materials, plaits and the like bound together in parallel strands or woven in sheet form, finished articles or not 1 shipments
851490 Furnaces, ovens and heating equipment; parts of the industrial or laboratory equipment of heading no. 8514 1 shipments
860730.0 Railway or tramway locomotives or rolling stock; parts thereof 1 shipments
870821 Vehicles; parts of bodies, safety seat belts 1 shipments
to show market analysis.
Similar Suppliers
to see more.
Latest Shipments
Arrival Date Bill Of Lading Consignee Weight HS Code Description
2026-03-22 DMALSELC10817 NEXTEER 3900 HOLLAND 1454.0 kg 841590.0 PARTS FOR AUTOMOTIVE
2026-03-16 DMALSELC10015 NEXTEER 3900 HOLLAND 3514.0 kg 842691.0 BUSHING,MOUNTING
2026-03-12 DMALSELC08018 NEXTEER 3900 HOLLAND 6948.0 kg 841590.0 PARTS FOR AUTOMOTIVE
2026-02-28 DMALSELC08017 NEXTEER 3900 HOLLAND 3514.0 kg 841590.0 PARTS FOR AUTOMOTIVE
2026-02-26 DMALSELC07536 NEXTEER 3900 HOLLAND 3581.0 kg 841590.0 PARTS FOR AUTOMOTIVE
2026-02-20 DMALSELC07876 NEXTEER 3900 HOLLAND 1815.0 kg 842691.0 BUSHING,MOUNTING
2026-02-14 BWLESEL59464247 IFA ROTORION NORTH AMERICA LLC 992.0 kg 860730.0 RUBBER COUPLING BCD
2026-01-27 DMALSELC06421 NEXTEER 3900 HOLLAND 427.0 kg 841590.0 PARTS FOR AUTOMOTIVE
2026-01-23 DMALSELC05500 NEXTEER 3900 HOLLAND 427.0 kg 841590.0 PARTS FOR AUTOMOTIVE
2026-01-06 DMALSELC04866 NEXTEER 3900 HOLLAND 2278.0 kg 841590.0 PARTS FOR AUTOMOTIVE
2023-12-25 BWLESEL37044948 IFA ROTORION NORTH AMERICA LLC 992.0 kg 860730 RUBBER COUPLING BCD80
2023-12-03 BWLESEL37007397 IFA ROTORION NA LLC 992.0 kg 860730 RUBBER COUPLING BCD80
2023-11-04 BWLESEL36884249 IFA ROTORION NORTH AMERICA LLC 992.0 kg 860730 PARTS FOR AUTOMOTIVERUBBER COUPLING
2023-08-21 BWLESEL36706389 IFA ROTORION NORTH AMERICA LLC 992.0 kg 860730 PARTS FOR AUTOMOTIVERUBBER COUPLING
2023-08-03 BWLESEL36677819 IFA ROTORION NORTH AMERICA LLC 992.0 kg 860730 PARTS FOR AUTOMOTIVERUBBER COUPLING
2023-07-28 BWLESEL36652385 IFA ROTORION NORTH AMERICA LLC 992.0 kg 860730 PARTS FOR AUTOMOTIVERUBBER COUPLING
2023-06-18 BWLESEL36506094 IFA ROTORION NORTH AMERICA LLC 992.0 kg 860730 PARTS FOR AUTOMOTIVERUBBER COUPLING
2023-04-30 BWLESEL306410723 IFA ROTORION NORTH AMERICA LLC 992.0 kg 860730 PARTS FOR AUTOMOTIVERUBBER COUPLING
2023-04-18 BWLESEL306364940 IFA ROTORION NORTH AMERICA LLC 992.0 kg 860730 PARTS FOR AUTOMOTIVERUBBER COUPLING BCD80VENDOR NO: 20266PO NO :5500013821/00020, DATE : 2023.02.22(P/N : 4000-100000-270-00)
2022-12-15 BWLESEL206016606 IFA ROTORION NORTH AMERICA LLC 2160.0 kg 841590 PARTS FOR AUTOMOTIVE
2022-12-10 BWLESEL206006661 IFA ROTORION NORTH AMERICA LLC 2160.0 kg 841590 PARTS FOR AUTOMOTIVE
2022-11-22 BWLESEL205966236 IFA ROTORION NORTH AMERICA LLC 2160.0 kg 841590 PARTS FOR AUTOMOTIVE
2022-11-12 BWLESEL205952115 IFA ROTORION NORTH AMERICA LLC 992.0 kg 841590 PARTS FOR AUTOMOTIVE
2022-11-09 BWLESEL205992171 IFA ROTORION NORTH AMERICA LLC 2160.0 kg 841590 PARTS FOR AUTOMOTIVE
2022-11-05 BWLESEL205931791 IFA ROTORION NORTH AMERICA LLC 2160.0 kg 841590 PARTS FOR AUTOMOTIVE
2022-10-19 BWLESEL205931788 IFA ROTORION NORTH AMERICA LLC 2160.0 kg 841590 PARTS FOR AUTOMOTIVE
2022-10-08 BWLESEL205869826 IFA ROTORION NORTH AMERICA LLC 4320.0 kg 841590 PARTS FOR AUTOMOTIVE
2022-10-06 BWLESEL205906715 IFA ROTORION NORTH AMERICA LLC 2160.0 kg 841590 PARTS FOR AUTOMOTIVE
2022-09-30 BWLESEL205876712 ZF RESTRAINTS US INC 1372.0 kg 841590 AUTOMOTIVE PARTS
2022-09-24 BWLESEL205835500 IFA ROTORION NORTH AMERICA LLC 2160.0 kg 841590 PARTS FOR AUTOMOTIVE
2022-09-24 BWLESEL205863935 ZF ACTIVE SAFETY AND ELECTRONICS US 103.0 kg 841590 PARTS FOR AUTOMOTIVE
2022-09-16 BWLESEL205799835 IFA ROTORION NORTH AMERICA LLC 5136.0 kg 841590 PARTS FOR AUTOMOTIVE
2022-09-10 BWLESEL205789713 IFA ROTORION NORTH AMERICA LLC 8464.0 kg 841590 PARTS FOR AUTOMOTIVE
2022-08-20 BWLESEL205740426 IFA ROTORION NORTH AMERICA LLC 5312.0 kg 841590 PARTS FOR AUTOMOTIVE
2022-08-16 BWLESEL205747523 IFA ROTORION NORTH AMERICA LLC 2160.0 kg 841590 PARTS FOR AUTOMOTIVE
2022-08-16 BWLESEL205761913 IFA ROTORION NORTH AMERICA LLC 6480.0 kg 841590 PARTS FOR AUTOMOTIVE
2022-08-02 BWLESEL205726607 ZF ACTIVE SAFETY AND ELECTRONICS US 620.0 kg 841590 PARTS FOR AUTOMOTIVE
2022-08-02 BWLESEL205722898 IFA ROTORION NORTH AMERICA LLC 3064.0 kg 841590 PARTS FOR AUTOMOTIVE
2022-07-26 BWLESEL205698553 IFA ROTORION NORTH AMERICA LLC 1080.0 kg 841590 PARTS FOR AUTOMOTIVE
2022-07-14 BWLESEL205648776 IFA ROTORION NORTH AMERICA LLC 4232.0 kg 841590 PARTS FOR AUTOMOTIVE
2022-07-05 BWLESEL205648784 IFA ROTORION NORTH AMERICA LLC 5224.0 kg 841590 PARTS FOR AUTOMOTIVE
2022-06-26 BWLESEL205620896 IFA ROTORION NORTH AMERICA LLC 992.0 kg 841590 PARTS FOR AUTOMOTIVE
2022-06-26 BWLESEL205630355 ZF ACTIVE SAFETY AND ELECTRONICS US 433.0 kg 841590 PARTS FOR AUTOMOTIVE
2022-06-07 BWLESEL205589833 IFA ROTORION NORTH AMERICA LLC 2160.0 kg 841590 PARTS FOR AUTOMOTIVE
2022-05-30 BWLESEL205586649 IFA ROTORION NORTH AMERICA LLC 2072.0 kg 841590 PARTS FOR AUTOMOTIVE
2022-05-12 BWLESEL205484407 IFA ROTORION NORTH AMERICA LLC 5224.0 kg 841590 PARTS FOR AUTOMOTIVE
2022-05-10 BWLESEL205498107 ZF ACTIVE SAFETY AND ELECTRONICS US 261.0 kg 841590 PARTS FOR AUTOMOTIVE
2022-05-10 BWLESEL205541792 IFA ROTORION NORTH AMERICA LLC 4232.0 kg 841590 PARTS FOR AUTOMOTIVE
2022-04-19 BWLESEL205433755 IFA ROTORION NORTH AMERICA LLC 3152.0 kg 841590 PARTS FOR AUTOMOTIVE
2022-04-09 BWLESEL205416878 IFA ROTORION NORTH AMERICA LLC 3240.0 kg 841590 PARTS FOR AUTOMOTIVE
Contact information Request
to request contact information.
Other address
11 SUCHUL-DAERO 7-GIL GYEONGBUK
GONGDAN DONG 11 SUCHUL DAERO 7 GIL